Location: Zlin
(49.2330°N, 17.6670°E)
Time: 13:15:32

ISS - Visible Passes

Search period start: 26 October 2016 00:00
Search period end: 04 November 2016 23:00
Orbit: 399 x 408 km, 51.6° (Epoch: 26 October)

Date Brightness Start Highest point End Pass type
(mag) Time Alt. Az. Time Alt. Az. Time Alt. Az.
01 Nov -0.5 06:00:24 10° S 06:02:51 20° SE 06:05:16 10° E visible
02 Nov -0.2 05:09:16 10° SSE 05:10:35 12° SE 05:11:54 10° ESE visible
03 Nov -1.8 05:51:02 10° SW 05:54:04 36° SSE 05:57:06 10° E visible
04 Nov -1.1 04:59:04 10° SSW 05:01:42 23° SE 05:04:22 10° E visible
